Wetterdaten: Freitag, 22.07.2011
Datum Zeit Temp. Auen Feucht Auen Luftdruck Regen Richtung Richtung Windben
22.07.2011 00:00 13,7 C 98 % 1078,4 hPa 0,0 mm SW 236 7,2 km/h (2 Bft)
22.07.2011 00:05 13,7 C 98 % 1078,4 hPa 0,0 mm W 264 7,2 km/h (2 Bft)
22.07.2011 00:10 13,9 C 97 % 1078,5 hPa 0,0 mm W 269 7,2 km/h (2 Bft)
22.07.2011 00:15 14,0 C 96 % 1078,4 hPa 0,0 mm W-SW 253 8,6 km/h (2 Bft)
22.07.2011 00:20 14,1 C 95 % 1078,7 hPa 0,0 mm W-SW 253 8,6 km/h (2 Bft)
22.07.2011 00:25 14,1 C 95 % 1078,4 hPa 0,0 mm W 268 8,6 km/h (2 Bft)
22.07.2011 00:30 14,1 C 95 % 1078,4 hPa 0,0 mm W 267 8,6 km/h (2 Bft)
22.07.2011 00:35 14,1 C 95 % 1078,5 hPa 0,0 mm W 263 7,2 km/h (2 Bft)
22.07.2011 00:40 14,2 C 94 % 1078,5 hPa 0,0 mm W 271 12,2 km/h (2 Bft)
22.07.2011 00:45 14,3 C 94 % 1078,4 hPa 0,0 mm W 271 13,3 km/h (3 Bft)
22.07.2011 00:50 14,3 C 94 % 1078,1 hPa 0,0 mm W 271 13,3 km/h (3 Bft)
22.07.2011 00:55 14,3 C 93 % 1078,4 hPa 0,0 mm W 274 9,7 km/h (2 Bft)
22.07.2011 01:00 14,3 C 93 % 1078,3 hPa 0,0 mm W 263 9,7 km/h (2 Bft)
22.07.2011 01:05 14,3 C 93 % 1078,3 hPa 0,0 mm W 264 9,7 km/h (2 Bft)
22.07.2011 01:10 14,3 C 92 % 1078,1 hPa 0,0 mm W 263 11,2 km/h (2 Bft)
22.07.2011 01:15 14,3 C 92 % 1078,1 hPa 0,0 mm W 259 15,8 km/h (3 Bft)
22.07.2011 01:20 14,3 C 91 % 1078,3 hPa 0,0 mm W-SW 252 15,8 km/h (3 Bft)
22.07.2011 01:25 14,3 C 91 % 1078,1 hPa 0,0 mm W-SW 256 14,8 km/h (3 Bft)
22.07.2011 01:30 14,3 C 91 % 1078,4 hPa 0,0 mm W 265 9,7 km/h (2 Bft)
22.07.2011 01:35 14,3 C 91 % 1078,1 hPa 0,0 mm W-SW 257 14,8 km/h (3 Bft)
22.07.2011 01:40 14,3 C 91 % 1078,3 hPa 0,0 mm W-SW 258 14,8 km/h (3 Bft)
22.07.2011 01:45 14,3 C 91 % 1078,1 hPa 0,0 mm W-SW 257 11,2 km/h (2 Bft)
22.07.2011 01:50 14,3 C 91 % 1078,1 hPa 0,0 mm W 260 9,7 km/h (2 Bft)
22.07.2011 01:55 14,3 C 91 % 1078,1 hPa 0,0 mm W 269 9,7 km/h (2 Bft)
22.07.2011 02:00 14,3 C 91 % 1078,1 hPa 0,0 mm W 267 9,7 km/h (2 Bft)
22.07.2011 02:05 14,2 C 91 % 1078,1 hPa 0,0 mm W 268 9,7 km/h (2 Bft)
22.07.2011 02:10 14,2 C 91 % 1078,1 hPa 0,0 mm W 270 9,7 km/h (2 Bft)
22.07.2011 02:15 14,2 C 91 % 1078,1 hPa 0,0 mm W 267 9,7 km/h (2 Bft)
22.07.2011 02:20 14,2 C 91 % 1077,9 hPa 0,0 mm W 259 8,6 km/h (2 Bft)
22.07.2011 02:25 14,3 C 91 % 1077,8 hPa 0,0 mm W-SW 247 9,7 km/h (2 Bft)
22.07.2011 02:30 14,3 C 90 % 1077,6 hPa 0,0 mm W-SW 249 12,2 km/h (2 Bft)
22.07.2011 02:35 14,4 C 90 % 1077,7 hPa 0,0 mm W 262 12,2 km/h (2 Bft)
22.07.2011 02:40 14,4 C 90 % 1077,8 hPa 0,0 mm W 265 15,8 km/h (3 Bft)
22.07.2011 02:45 14,3 C 90 % 1077,7 hPa 0,0 mm W 259 15,8 km/h (3 Bft)
22.07.2011 02:50 14,2 C 91 % 1077,7 hPa 0,0 mm W-SW 255 11,2 km/h (2 Bft)
22.07.2011 02:55 14,1 C 91 % 1077,7 hPa 0,0 mm W 264 12,2 km/h (2 Bft)
22.07.2011 03:00 14,0 C 91 % 1077,9 hPa 0,0 mm W 270 13,3 km/h (3 Bft)
22.07.2011 03:05 14,0 C 91 % 1077,8 hPa 0,0 mm W-SW 250 13,3 km/h (3 Bft)
22.07.2011 03:10 14,0 C 92 % 1077,8 hPa 0,0 mm SW 236 8,6 km/h (2 Bft)
22.07.2011 03:15 14,0 C 92 % 1077,8 hPa 0,0 mm W-SW 255 8,6 km/h (2 Bft)
22.07.2011 03:20 14,0 C 92 % 1077,8 hPa 0,0 mm W 264 8,6 km/h (2 Bft)
22.07.2011 03:25 14,0 C 92 % 1077,8 hPa 0,0 mm W 262 7,2 km/h (2 Bft)
22.07.2011 03:30 13,9 C 92 % 1077,9 hPa 0,0 mm W-NW 289 7,2 km/h (2 Bft)
22.07.2011 03:35 13,9 C 92 % 1077,7 hPa 0,0 mm W-NW 292 7,2 km/h (2 Bft)
22.07.2011 03:40 13,9 C 92 % 1077,8 hPa 0,0 mm W 269 9,7 km/h (2 Bft)
22.07.2011 03:45 13,8 C 92 % 1077,7 hPa 0,0 mm W 277 9,7 km/h (2 Bft)
22.07.2011 03:50 13,8 C 92 % 1077,7 hPa 0,0 mm W 277 7,2 km/h (2 Bft)
22.07.2011 03:55 13,8 C 92 % 1077,6 hPa 0,0 mm W 267 5,0 km/h (1 Bft)
22.07.2011 04:00 13,7 C 93 % 1077,7 hPa 0,0 mm W 270 7,2 km/h (2 Bft)
22.07.2011 04:05 13,7 C 93 % 1077,5 hPa 0,0 mm W-SW 254 7,2 km/h (2 Bft)
22.07.2011 04:10 13,7 C 92 % 1077,8 hPa 0,0 mm W-SW 245 12,2 km/h (2 Bft)
22.07.2011 04:15 13,7 C 93 % 1077,8 hPa 0,0 mm W-SW 253 12,2 km/h (2 Bft)
22.07.2011 04:20 13,6 C 93 % 1077,8 hPa 0,0 mm W-SW 253 12,2 km/h (2 Bft)
22.07.2011 04:25 13,6 C 93 % 1077,7 hPa 0,0 mm W 261 6,1 km/h (2 Bft)
22.07.2011 04:30 13,5 C 94 % 1077,7 hPa 0,0 mm W 270 6,1 km/h (2 Bft)
22.07.2011 04:35 13,5 C 94 % 1077,6 hPa 0,0 mm W 260 5,0 km/h (1 Bft)
22.07.2011 04:40 13,5 C 94 % 1077,6 hPa 0,0 mm SW 236 6,1 km/h (2 Bft)
22.07.2011 04:45 13,5 C 94 % 1077,7 hPa 0,0 mm SW 225 6,1 km/h (2 Bft)
22.07.2011 04:50 13,5 C 94 % 1077,6 hPa 0,0 mm SW 233 6,1 km/h (2 Bft)
22.07.2011 04:55 13,5 C 94 % 1077,6 hPa 0,0 mm SW 233 6,1 km/h (2 Bft)
22.07.2011 05:00 13,5 C 94 % 1077,7 hPa 0,0 mm SW 225 5,0 km/h (1 Bft)
22.07.2011 05:05 13,5 C 94 % 1077,8 hPa 0,0 mm SW 225 5,0 km/h (1 Bft)
22.07.2011 05:10 13,5 C 94 % 1077,6 hPa 0,0 mm SW 225 5,0 km/h (1 Bft)
22.07.2011 05:15 13,5 C 93 % 1077,6 hPa 0,0 mm SW 225 5,0 km/h (1 Bft)
22.07.2011 05:20 13,5 C 94 % 1077,8 hPa 0,0 mm SW 225 5,0 km/h (1 Bft)
22.07.2011 05:25 13,5 C 93 % 1077,8 hPa 0,0 mm SW 225 3,6 km/h (1 Bft)
22.07.2011 05:30 13,5 C 93 % 1077,9 hPa 0,0 mm SW 225 5,0 km/h (1 Bft)
22.07.2011 05:35 13,5 C 93 % 1077,8 hPa 0,0 mm SW 225 5,0 km/h (1 Bft)
22.07.2011 05:40 13,5 C 93 % 1077,9 hPa 0,0 mm SW 225 5,0 km/h (1 Bft)
22.07.2011 05:45 13,5 C 93 % 1077,9 hPa 0,0 mm SW 225 7,2 km/h (2 Bft)
22.07.2011 05:50 13,4 C 93 % 1077,8 hPa 0,3 mm W-SW 245 7,2 km/h (2 Bft)
22.07.2011 05:55 13,3 C 93 % 1078,1 hPa 0,0 mm W 264 8,6 km/h (2 Bft)
22.07.2011 06:00 13,2 C 94 % 1078,0 hPa 0,0 mm W 270 8,6 km/h (2 Bft)
22.07.2011 06:05 13,2 C 94 % 1078,0 hPa 0,0 mm W 270 5,0 km/h (1 Bft)
22.07.2011 06:10 13,2 C 95 % 1078,0 hPa 0,0 mm W 270 3,6 km/h (1 Bft)
22.07.2011 06:15 13,2 C 95 % 1078,1 hPa 0,0 mm W 270 3,6 km/h (1 Bft)
22.07.2011 06:20 13,2 C 95 % 1078,1 hPa 0,0 mm W-SW 250 6,1 km/h (2 Bft)
22.07.2011 06:25 13,2 C 95 % 1078,1 hPa 0,0 mm SW 231 6,1 km/h (2 Bft)
22.07.2011 06:30 13,2 C 95 % 1078,3 hPa 0,0 mm SW 225 6,1 km/h (2 Bft)
22.07.2011 06:35 13,3 C 95 % 1078,0 hPa 0,0 mm W-SW 248 7,2 km/h (2 Bft)
22.07.2011 06:40 13,3 C 95 % 1078,2 hPa 0,0 mm W 269 9,7 km/h (2 Bft)
22.07.2011 06:45 13,2 C 95 % 1078,1 hPa 0,3 mm W 270 9,7 km/h (2 Bft)
22.07.2011 06:50 13,2 C 95 % 1078,1 hPa 0,0 mm W-SW 256 6,1 km/h (2 Bft)
22.07.2011 06:55 13,2 C 96 % 1078,3 hPa 0,0 mm W 260 6,1 km/h (2 Bft)
22.07.2011 07:00 13,2 C 96 % 1078,3 hPa 0,6 mm W 270 7,2 km/h (2 Bft)
22.07.2011 07:05 13,2 C 96 % 1078,2 hPa 0,0 mm W 270 7,2 km/h (2 Bft)
22.07.2011 07:10 13,0 C 97 % 1078,4 hPa 1,2 mm W 277 13,3 km/h (3 Bft)
22.07.2011 07:15 13,0 C 97 % 1078,1 hPa 0,3 mm W 267 13,3 km/h (3 Bft)
22.07.2011 07:20 13,0 C 97 % 1078,2 hPa 0,0 mm W 259 12,2 km/h (2 Bft)
22.07.2011 07:25 13,0 C 97 % 1078,1 hPa 0,3 mm W 270 12,2 km/h (2 Bft)
22.07.2011 07:30 13,0 C 97 % 1078,1 hPa 0,0 mm W 266 12,2 km/h (2 Bft)
22.07.2011 07:35 13,1 C 97 % 1078,2 hPa 0,0 mm W 260 9,7 km/h (2 Bft)
22.07.2011 07:40 13,1 C 97 % 1078,1 hPa 0,0 mm W-SW 256 9,7 km/h (2 Bft)
22.07.2011 07:45 13,1 C 97 % 1078,2 hPa 0,0 mm W 262 8,6 km/h (2 Bft)
22.07.2011 07:50 13,1 C 97 % 1078,2 hPa 0,0 mm W 270 8,6 km/h (2 Bft)
22.07.2011 07:55 13,1 C 98 % 1078,2 hPa 0,0 mm W 270 5,0 km/h (1 Bft)
22.07.2011 08:00 13,1 C 98 % 1078,4 hPa 0,0 mm W 270 3,6 km/h (1 Bft)
22.07.2011 08:05 13,1 C 98 % 1078,3 hPa 0,0 mm W 270 3,6 km/h (1 Bft)
22.07.2011 08:10 13,3 C 98 % 1078,4 hPa 0,0 mm W 270 3,6 km/h (1 Bft)
22.07.2011 08:15 13,3 C 98 % 1078,3 hPa 0,0 mm W 264 5,0 km/h (1 Bft)
22.07.2011 08:20 13,3 C 99 % 1078,5 hPa 0,0 mm W 265 5,0 km/h (1 Bft)
22.07.2011 08:25 13,4 C 99 % 1078,3 hPa 0,0 mm W 270 5,0 km/h (1 Bft)
22.07.2011 08:30 13,4 C 99 % 1078,3 hPa 0,0 mm W 270 6,1 km/h (2 Bft)
22.07.2011 08:35 13,5 C 98 % 1078,3 hPa 0,0 mm W 270 6,1 km/h (2 Bft)
22.07.2011 08:40 13,5 C 98 % 1078,3 hPa 0,0 mm W 270 5,0 km/h (1 Bft)
22.07.2011 08:45 13,7 C 98 % 1078,3 hPa 0,0 mm W 270 3,6 km/h (1 Bft)
22.07.2011 08:50 13,9 C 98 % 1078,1 hPa 0,0 mm W 270 3,6 km/h (1 Bft)
22.07.2011 08:55 14,0 C 98 % 1078,2 hPa 0,0 mm W 270 6,1 km/h (2 Bft)
22.07.2011 09:00 14,1 C 98 % 1078,1 hPa 0,0 mm W 259 6,1 km/h (2 Bft)
22.07.2011 09:05 14,1 C 98 % 1078,4 hPa 0,0 mm W-SW 239 6,1 km/h (2 Bft)
22.07.2011 09:10 14,1 C 97 % 1078,3 hPa 0,3 mm W-SW 240 6,1 km/h (2 Bft)
22.07.2011 09:15 14,2 C 97 % 1078,3 hPa 0,0 mm W-SW 252 6,1 km/h (2 Bft)
22.07.2011 09:20 14,2 C 97 % 1078,4 hPa 0,3 mm W-SW 258 9,7 km/h (2 Bft)
22.07.2011 09:25 13,9 C 96 % 1078,4 hPa 0,6 mm W 262 9,7 km/h (2 Bft)
22.07.2011 09:30 13,8 C 96 % 1078,4 hPa 0,3 mm W 265 9,7 km/h (2 Bft)
22.07.2011 09:35 13,8 C 97 % 1078,4 hPa 0,0 mm W 266 9,7 km/h (2 Bft)
22.07.2011 09:40 13,9 C 97 % 1078,4 hPa 0,0 mm W-SW 256 8,6 km/h (2 Bft)
22.07.2011 09:45 13,9 C 97 % 1078,2 hPa 0,0 mm W-SW 249 9,7 km/h (2 Bft)
22.07.2011 09:50 13,9 C 97 % 1078,0 hPa 0,0 mm W-SW 252 9,7 km/h (2 Bft)
22.07.2011 09:55 13,9 C 97 % 1078,5 hPa 0,3 mm W 260 12,2 km/h (2 Bft)
22.07.2011 10:00 13,9 C 97 % 1078,5 hPa 0,0 mm W 261 12,2 km/h (2 Bft)
22.07.2011 10:05 13,9 C 97 % 1078,5 hPa 0,0 mm W-NW 287 11,2 km/h (2 Bft)
22.07.2011 10:10 13,8 C 98 % 1078,7 hPa 0,0 mm W-NW 300 8,6 km/h (2 Bft)
22.07.2011 10:15 13,8 C 98 % 1078,7 hPa 0,3 mm W 265 8,6 km/h (2 Bft)
22.07.2011 10:20 13,8 C 98 % 1078,5 hPa 0,3 mm W-SW 252 8,6 km/h (2 Bft)
22.07.2011 10:25 13,9 C 99 % 1078,7 hPa 0,0 mm W 260 8,6 km/h (2 Bft)
22.07.2011 10:30 14,0 C 99 % 1078,6 hPa 0,0 mm W 260 11,2 km/h (2 Bft)
22.07.2011 10:35 14,1 C 99 % 1078,7 hPa 0,0 mm W-SW 253 11,2 km/h (2 Bft)
22.07.2011 10:40 14,2 C 99 % 1078,6 hPa 0,0 mm W-SW 256 11,2 km/h (2 Bft)
22.07.2011 10:45 14,3 C 99 % 1078,6 hPa 0,0 mm W 261 8,6 km/h (2 Bft)
22.07.2011 10:50 14,3 C 99 % 1078,9 hPa 0,6 mm W-SW 247 8,6 km/h (2 Bft)
22.07.2011 10:55 14,2 C 99 % 1078,7 hPa 1,5 mm W-SW 242 11,2 km/h (2 Bft)
22.07.2011 11:00 14,1 C 99 % 1078,6 hPa 0,3 mm W-SW 240 11,2 km/h (2 Bft)
22.07.2011 11:05 14,1 C 99 % 1078,8 hPa 0,3 mm W-SW 253 11,2 km/h (2 Bft)
22.07.2011 11:10 14,2 C 99 % 1078,8 hPa 0,9 mm W 262 9,7 km/h (2 Bft)
22.07.2011 11:15 14,2 C 99 % 1078,6 hPa 0,3 mm W-SW 252 9,7 km/h (2 Bft)
22.07.2011 11:20 14,3 C 99 % 1078,8 hPa 0,0 mm W 267 11,2 km/h (2 Bft)
22.07.2011 11:25 14,4 C 99 % 1078,9 hPa 0,3 mm W 273 15,8 km/h (3 Bft)
22.07.2011 11:30 14,6 C 99 % 1078,8 hPa 0,0 mm W 261 15,8 km/h (3 Bft)
22.07.2011 11:35 14,7 C 99 % 1079,0 hPa 0,0 mm W-SW 248 11,2 km/h (2 Bft)
22.07.2011 11:40 14,9 C 99 % 1078,6 hPa 0,3 mm W-SW 251 12,2 km/h (2 Bft)
22.07.2011 11:45 15,2 C 99 % 1078,9 hPa 0,0 mm W-SW 257 12,2 km/h (2 Bft)
22.07.2011 11:50 15,7 C 98 % 1078,7 hPa 0,0 mm W 267 14,8 km/h (3 Bft)
22.07.2011 11:55 15,8 C 97 % 1078,5 hPa 0,0 mm W 267 14,8 km/h (3 Bft)
22.07.2011 12:00 15,5 C 94 % 1078,5 hPa 0,0 mm W 264 14,8 km/h (3 Bft)
22.07.2011 12:05 15,5 C 94 % 1079,0 hPa 0,0 mm W 268 12,2 km/h (2 Bft)
22.07.2011 12:10 15,1 C 96 % 1078,8 hPa 0,6 mm W 260 8,6 km/h (2 Bft)
22.07.2011 12:15 15,0 C 96 % 1079,0 hPa 0,3 mm W-SW 257 13,3 km/h (3 Bft)
22.07.2011 12:20 15,0 C 96 % 1078,9 hPa 0,3 mm W-SW 258 13,3 km/h (3 Bft)
22.07.2011 12:25 15,0 C 97 % 1078,8 hPa 0,0 mm W 261 14,8 km/h (3 Bft)
22.07.2011 12:30 15,1 C 97 % 1078,9 hPa 0,0 mm W 267 14,8 km/h (3 Bft)
22.07.2011 12:35 15,4 C 96 % 1079,1 hPa 0,0 mm W 265 14,8 km/h (3 Bft)
22.07.2011 12:40 15,5 C 96 % 1078,8 hPa 0,0 mm W-SW 249 13,3 km/h (3 Bft)
22.07.2011 12:45 15,6 C 95 % 1078,8 hPa 0,0 mm W-SW 256 13,3 km/h (3 Bft)
22.07.2011 12:50 15,9 C 95 % 1078,8 hPa 0,0 mm W 264 12,2 km/h (2 Bft)
22.07.2011 12:55 16,0 C 94 % 1078,7 hPa 0,0 mm W 264 12,2 km/h (2 Bft)
22.07.2011 13:00 16,4 C 93 % 1078,5 hPa 0,0 mm W 270 12,2 km/h (2 Bft)
22.07.2011 13:05 16,4 C 93 % 1078,6 hPa 0,0 mm W 270 13,3 km/h (3 Bft)
22.07.2011 13:10 16,1 C 91 % 1078,9 hPa 0,0 mm W 270 13,3 km/h (3 Bft)
22.07.2011 13:15 16,0 C 92 % 1078,8 hPa 0,0 mm W 270 13,3 km/h (3 Bft)
22.07.2011 13:20 16,3 C 93 % 1078,6 hPa 0,0 mm W 271 13,3 km/h (3 Bft)
22.07.2011 13:25 16,8 C 93 % 1078,6 hPa 0,0 mm W 271 13,3 km/h (3 Bft)
22.07.2011 13:30 17,0 C 92 % 1078,6 hPa 0,0 mm W 270 8,6 km/h (2 Bft)
22.07.2011 13:35 17,0 C 89 % 1078,4 hPa 0,0 mm W 270 12,2 km/h (2 Bft)
22.07.2011 13:40 17,4 C 88 % 1078,3 hPa 0,0 mm W 269 14,8 km/h (3 Bft)
22.07.2011 13:45 17,9 C 86 % 1077,9 hPa 0,0 mm W 269 14,8 km/h (3 Bft)
22.07.2011 13:50 18,3 C 84 % 1078,1 hPa 0,0 mm W-SW 258 12,2 km/h (2 Bft)
22.07.2011 13:55 18,6 C 83 % 1077,9 hPa 0,0 mm W-SW 257 13,3 km/h (3 Bft)
22.07.2011 14:00 18,4 C 81 % 1077,8 hPa 0,0 mm W 276 14,8 km/h (3 Bft)
22.07.2011 14:05 18,3 C 80 % 1077,7 hPa 0,0 mm W 275 14,8 km/h (3 Bft)
22.07.2011 14:10 18,2 C 82 % 1077,8 hPa 0,0 mm W 269 12,2 km/h (2 Bft)
22.07.2011 14:15 18,8 C 83 % 1077,7 hPa 0,0 mm W 259 14,8 km/h (3 Bft)
22.07.2011 14:20 19,5 C 82 % 1077,3 hPa 0,0 mm W-SW 249 14,8 km/h (3 Bft)
22.07.2011 14:25 20,0 C 78 % 1077,2 hPa 0,0 mm W-SW 255 15,8 km/h (3 Bft)
22.07.2011 14:30 20,0 C 78 % 1077,2 hPa 0,0 mm W 261 15,8 km/h (3 Bft)
22.07.2011 14:35 20,0 C 77 % 1077,1 hPa 0,0 mm W 270 15,8 km/h (3 Bft)
22.07.2011 14:40 20,2 C 77 % 1077,2 hPa 0,0 mm W 270 14,8 km/h (3 Bft)
22.07.2011 14:45 19,9 C 77 % 1077,1 hPa 0,0 mm W 265 15,8 km/h (3 Bft)
22.07.2011 14:50 19,7 C 76 % 1077,6 hPa 0,0 mm W 260 15,8 km/h (3 Bft)
22.07.2011 14:55 19,6 C 74 % 1077,4 hPa 0,0 mm W 269 9,7 km/h (2 Bft)
22.07.2011 15:00 19,7 C 72 % 1077,4 hPa 0,0 mm W 269 14,8 km/h (3 Bft)
22.07.2011 15:05 19,6 C 71 % 1077,5 hPa 0,0 mm W-SW 239 15,8 km/h (3 Bft)
22.07.2011 15:10 19,7 C 72 % 1077,4 hPa 0,0 mm SW 233 15,8 km/h (3 Bft)
22.07.2011 15:15 19,8 C 72 % 1077,4 hPa 0,0 mm W-SW 255 15,8 km/h (3 Bft)
22.07.2011 15:20 20,1 C 70 % 1077,3 hPa 0,0 mm W 261 14,8 km/h (3 Bft)
22.07.2011 15:25 20,2 C 69 % 1077,3 hPa 0,0 mm W-SW 242 13,3 km/h (3 Bft)
22.07.2011 15:30 20,2 C 68 % 1077,2 hPa 0,0 mm W-SW 249 13,3 km/h (3 Bft)
22.07.2011 15:35 20,7 C 67 % 1077,0 hPa 0,0 mm W 270 13,3 km/h (3 Bft)
22.07.2011 15:40 21,2 C 67 % 1076,9 hPa 0,0 mm W 260 13,3 km/h (3 Bft)
22.07.2011 15:45 21,8 C 64 % 1076,9 hPa 0,0 mm W 260 12,2 km/h (2 Bft)
22.07.2011 15:50 21,9 C 61 % 1076,6 hPa 0,0 mm W-SW 254 19,4 km/h (3 Bft)
22.07.2011 15:55 21,8 C 61 % 1076,9 hPa 0,0 mm W 259 19,4 km/h (3 Bft)
22.07.2011 16:00 21,7 C 62 % 1077,1 hPa 0,0 mm W 275 18,4 km/h (3 Bft)
22.07.2011 16:05 21,7 C 62 % 1077,1 hPa 0,0 mm W 272 20,9 km/h (4 Bft)
22.07.2011 16:10 21,3 C 60 % 1077,1 hPa 0,0 mm W 272 20,9 km/h (4 Bft)
22.07.2011 16:15 20,8 C 61 % 1077,4 hPa 0,0 mm W 267 20,9 km/h (4 Bft)
22.07.2011 16:20 20,7 C 63 % 1077,3 hPa 0,0 mm W-SW 258 15,8 km/h (3 Bft)
22.07.2011 16:25 20,5 C 63 % 1077,2 hPa 0,0 mm W 269 12,2 km/h (2 Bft)
22.07.2011 16:30 20,4 C 64 % 1077,4 hPa 0,0 mm W 268 12,2 km/h (2 Bft)
22.07.2011 16:35 20,1 C 64 % 1077,5 hPa 0,0 mm W 263 11,2 km/h (2 Bft)
22.07.2011 16:40 19,9 C 64 % 1077,6 hPa 0,0 mm W 270 12,2 km/h (2 Bft)
22.07.2011 16:45 19,7 C 64 % 1077,5 hPa 0,0 mm W 261 13,3 km/h (3 Bft)
22.07.2011 16:50 19,6 C 66 % 1077,4 hPa 0,0 mm W-SW 252 13,3 km/h (3 Bft)
22.07.2011 16:55 19,6 C 66 % 1077,3 hPa 0,0 mm W 267 13,3 km/h (3 Bft)
22.07.2011 17:00 19,8 C 67 % 1077,4 hPa 0,0 mm W 273 13,3 km/h (3 Bft)
22.07.2011 17:05 19,9 C 67 % 1077,3 hPa 0,0 mm W 270 13,3 km/h (3 Bft)
22.07.2011 17:10 20,6 C 64 % 1077,0 hPa 0,0 mm W 270 15,8 km/h (3 Bft)
22.07.2011 17:15 20,0 C 63 % 1077,2 hPa 0,0 mm W 260 18,4 km/h (3 Bft)
22.07.2011 17:20 19,7 C 64 % 1077,5 hPa 0,0 mm W 261 19,4 km/h (3 Bft)
22.07.2011 17:25 19,4 C 65 % 1077,6 hPa 0,0 mm W 265 19,4 km/h (3 Bft)
22.07.2011 17:30 19,3 C 65 % 1077,6 hPa 0,0 mm W 264 14,8 km/h (3 Bft)
22.07.2011 17:35 19,2 C 66 % 1077,6 hPa 0,0 mm W 264 9,7 km/h (2 Bft)
22.07.2011 17:40 19,1 C 67 % 1077,5 hPa 0,0 mm W 260 9,7 km/h (2 Bft)
22.07.2011 17:45 19,3 C 66 % 1077,6 hPa 0,0 mm W-SW 257 13,3 km/h (3 Bft)
22.07.2011 17:50 19,6 C 67 % 1077,5 hPa 0,0 mm W-SW 258 15,8 km/h (3 Bft)
22.07.2011 17:55 20,0 C 65 % 1077,4 hPa 0,0 mm W 263 18,4 km/h (3 Bft)
22.07.2011 18:00 19,9 C 64 % 1077,7 hPa 0,0 mm W 262 18,4 km/h (3 Bft)
22.07.2011 18:05 19,8 C 64 % 1077,5 hPa 0,0 mm NW 315 12,2 km/h (2 Bft)
22.07.2011 18:10 19,2 C 65 % 1077,8 hPa 0,0 mm N-NW 340 9,7 km/h (2 Bft)
22.07.2011 18:15 19,1 C 66 % 1078,1 hPa 0,0 mm W 278 9,7 km/h (2 Bft)
22.07.2011 18:20 18,9 C 67 % 1077,9 hPa 0,0 mm W-SW 254 9,7 km/h (2 Bft)
22.07.2011 18:25 18,7 C 68 % 1078,0 hPa 0,0 mm W 260 9,7 km/h (2 Bft)
22.07.2011 18:30 18,5 C 68 % 1078,0 hPa 0,0 mm W-SW 254 11,2 km/h (2 Bft)
22.07.2011 18:35 18,4 C 69 % 1078,2 hPa 0,0 mm W-SW 251 11,2 km/h (2 Bft)
22.07.2011 18:40 18,2 C 69 % 1078,2 hPa 0,0 mm W-SW 254 9,7 km/h (2 Bft)
22.07.2011 18:45 18,1 C 68 % 1078,2 hPa 0,0 mm W-SW 253 12,2 km/h (2 Bft)
22.07.2011 18:50 18,0 C 67 % 1078,1 hPa 0,0 mm W-SW 245 12,2 km/h (2 Bft)
22.07.2011 18:55 17,9 C 68 % 1078,5 hPa 0,0 mm W-SW 250 12,2 km/h (2 Bft)
22.07.2011 19:00 17,8 C 67 % 1078,4 hPa 0,0 mm W-SW 251 8,6 km/h (2 Bft)
22.07.2011 19:05 17,8 C 67 % 1078,3 hPa 0,0 mm SW 235 8,6 km/h (2 Bft)
22.07.2011 19:10 17,5 C 67 % 1078,5 hPa 0,0 mm W-SW 237 8,6 km/h (2 Bft)
22.07.2011 19:15 17,3 C 68 % 1078,2 hPa 0,0 mm W-SW 254 8,6 km/h (2 Bft)
22.07.2011 19:20 17,2 C 68 % 1078,3 hPa 0,0 mm W-SW 258 8,6 km/h (2 Bft)
22.07.2011 19:25 17,2 C 68 % 1078,4 hPa 0,0 mm W-SW 256 7,2 km/h (2 Bft)
22.07.2011 19:30 17,1 C 68 % 1078,3 hPa 0,0 mm W-SW 257 7,2 km/h (2 Bft)
22.07.2011 19:35 17,1 C 69 % 1078,5 hPa 0,0 mm W 265 6,1 km/h (2 Bft)
22.07.2011 19:40 17,0 C 69 % 1078,8 hPa 0,0 mm W 270 6,1 km/h (2 Bft)
22.07.2011 19:45 16,9 C 69 % 1078,6 hPa 0,0 mm W 270 5,0 km/h (1 Bft)
22.07.2011 19:50 16,9 C 70 % 1078,7 hPa 0,0 mm W 270 6,1 km/h (2 Bft)
22.07.2011 19:55 16,9 C 71 % 1078,8 hPa 0,3 mm W 266 6,1 km/h (2 Bft)
22.07.2011 20:00 16,9 C 71 % 1078,8 hPa 0,0 mm W-SW 256 7,2 km/h (2 Bft)
22.07.2011 20:05 16,9 C 71 % 1078,7 hPa 0,0 mm O 91 7,2 km/h (2 Bft)
22.07.2011 20:10 16,7 C 72 % 1078,7 hPa 0,0 mm O 97 3,6 km/h (1 Bft)
22.07.2011 20:15 16,6 C 72 % 1078,7 hPa 0,0 mm O-SO 111 3,6 km/h (1 Bft)
22.07.2011 20:20 16,4 C 74 % 1078,8 hPa 0,0 mm O-NO 68 1,1 km/h (1 Bft)
22.07.2011 20:25 16,3 C 74 % 1078,8 hPa 0,0 mm S-SO 161 2,5 km/h (1 Bft)
22.07.2011 20:30 16,2 C 74 % 1079,0 hPa 0,0 mm S 187 3,6 km/h (1 Bft)
22.07.2011 20:35 16,2 C 74 % 1078,9 hPa 0,0 mm SW 236 3,6 km/h (1 Bft)
22.07.2011 20:40 16,2 C 74 % 1078,9 hPa 0,0 mm W 265 6,1 km/h (2 Bft)
22.07.2011 20:45 16,1 C 75 % 1078,9 hPa 0,0 mm W 269 6,1 km/h (2 Bft)
22.07.2011 20:50 16,0 C 75 % 1079,0 hPa 0,0 mm W 262 3,6 km/h (1 Bft)
22.07.2011 20:55 15,9 C 76 % 1079,0 hPa 0,0 mm W 279 3,6 km/h (1 Bft)
22.07.2011 21:00 15,8 C 76 % 1079,3 hPa 0,0 mm W-NW 284 5,0 km/h (1 Bft)
22.07.2011 21:05 15,8 C 76 % 1079,1 hPa 0,0 mm W 271 5,0 km/h (1 Bft)
22.07.2011 21:10 15,8 C 76 % 1079,4 hPa 0,0 mm W 261 11,2 km/h (2 Bft)
22.07.2011 21:15 15,6 C 77 % 1079,4 hPa 0,0 mm SW 235 11,2 km/h (2 Bft)
22.07.2011 21:20 15,5 C 78 % 1079,6 hPa 0,0 mm SW 222 7,2 km/h (2 Bft)
22.07.2011 21:25 15,4 C 79 % 1079,6 hPa 0,0 mm S-SW 210 7,2 km/h (2 Bft)
22.07.2011 21:30 15,3 C 79 % 1079,6 hPa 0,0 mm S-SW 209 7,2 km/h (2 Bft)
22.07.2011 21:35 15,3 C 79 % 1079,7 hPa 0,0 mm S-SW 198 6,1 km/h (2 Bft)
22.07.2011 21:40 15,3 C 80 % 1079,5 hPa 0,0 mm S-SW 199 7,2 km/h (2 Bft)
22.07.2011 21:45 15,2 C 80 % 1080,0 hPa 0,0 mm S 184 7,2 km/h (2 Bft)
22.07.2011 21:50 15,2 C 80 % 1079,7 hPa 0,0 mm SO 135 5,0 km/h (1 Bft)
22.07.2011 21:55 15,1 C 81 % 1079,7 hPa 0,0 mm SO 135 5,0 km/h (1 Bft)
22.07.2011 22:00 15,0 C 81 % 1079,8 hPa 0,0 mm SO 135 5,0 km/h (1 Bft)
22.07.2011 22:05 15,0 C 81 % 1079,9 hPa 0,0 mm S-SO 163 5,0 km/h (1 Bft)
22.07.2011 22:10 14,8 C 82 % 1079,7 hPa 0,0 mm S 175 5,0 km/h (1 Bft)
22.07.2011 22:15 14,7 C 82 % 1080,0 hPa 0,0 mm S-SO 151 5,0 km/h (1 Bft)
22.07.2011 22:20 14,6 C 82 % 1079,9 hPa 0,0 mm SO 142 5,0 km/h (1 Bft)
22.07.2011 22:25 14,6 C 82 % 1079,9 hPa 0,0 mm S-SO 164 5,0 km/h (1 Bft)
22.07.2011 22:30 14,5 C 82 % 1079,9 hPa 0,0 mm S 185 6,1 km/h (2 Bft)
22.07.2011 22:35 14,4 C 82 % 1080,0 hPa 0,0 mm S-SW 202 6,1 km/h (2 Bft)
22.07.2011 22:40 14,3 C 82 % 1080,2 hPa 0,0 mm S 183 5,0 km/h (1 Bft)
22.07.2011 22:45 14,3 C 82 % 1080,3 hPa 0,0 mm S-SO 156 5,0 km/h (1 Bft)
22.07.2011 22:50 14,2 C 82 % 1080,2 hPa 0,0 mm S 170 5,0 km/h (1 Bft)
22.07.2011 22:55 14,2 C 82 % 1080,3 hPa 0,0 mm SO 143 3,6 km/h (1 Bft)
22.07.2011 23:00 14,1 C 82 % 1080,3 hPa 0,0 mm SO 135 3,6 km/h (1 Bft)
22.07.2011 23:05 14,1 C 82 % 1080,2 hPa 0,0 mm SO 135 2,5 km/h (1 Bft)
22.07.2011 23:10 14,1 C 84 % 1080,2 hPa 0,0 mm SO 135 2,5 km/h (1 Bft)
22.07.2011 23:15 13,9 C 84 % 1080,3 hPa 0,0 mm S-SO 147 2,5 km/h (1 Bft)
22.07.2011 23:20 13,9 C 84 % 1080,4 hPa 0,0 mm W-SW 243 2,5 km/h (1 Bft)
22.07.2011 23:25 13,9 C 84 % 1080,3 hPa 0,0 mm W 270 1,1 km/h (1 Bft)
22.07.2011 23:30 13,9 C 84 % 1080,1 hPa 0,0 mm W 270 1,1 km/h (1 Bft)
22.07.2011 23:35 14,0 C 85 % 1080,4 hPa 0,0 mm W 270 3,6 km/h (1 Bft)
22.07.2011 23:40 13,9 C 85 % 1080,4 hPa 0,0 mm W 263 3,6 km/h (1 Bft)
22.07.2011 23:45 13,9 C 85 % 1080,1 hPa 0,0 mm S 176 3,6 km/h (1 Bft)
22.07.2011 23:50 13,9 C 86 % 1080,3 hPa 0,0 mm SO 135 3,6 km/h (1 Bft)
22.07.2011 23:55 13,7 C 87 % 1080,3 hPa 0,0 mm SO 135 2,5 km/h (1 Bft)
_ Min-Zeit 07:10 16:10 15:50 - - - 20:20
Minimum _ 13,0 C 60 % 1076,6 hPa - - - 1,1 km/h (1 Bft)
_ Max-Zeit 15:50 08:20 23:20 10:55 - - 16:05
Maximum _ 21,9 C 99 % 1080,4 hPa 1,5 mm - - 20,9 km/h
W (4 Bft)
Durchschnitt _ 15,6 C 86 % 1078,3 hPa #11,4 mm W - 9,6 km/h (2 Bft)